Flag for Aruba Weather past 2 weeks in Oranjestad, Aruba

Now
82 °F

Passing clouds.


Feels Like: 89 °F
Forecast: N/A
Wind: 22 mph from East

Location: Queen Beatrix Airport - Aruba

Current Time: Apr 18, 2015 at 7:55:33 PM

Latest Report: Apr 18, 2015 at 7:00 PM


Visibility: N/A

Pressure: 29.83 "Hg

Humidity: 79%

Dew point: 75 °F

Location of OranjestadLocation

Historic Weather in Oranjestad — Graph

°F

Oranjestad temperature yesterday

Maximum temperature yesterday: 90 °F (at 1:00 PM)
Minimum temperature yesterday: 79 °F (at 7:00 AM)
Average temperature yesterday: 83 °F

Past Weeks' High & Low Weather Summary

 TemperatureHumidityPressure
High90 °F (Apr 5, 2:00 PM)89% (Apr 5, 1:00 AM)30.24 "Hg (Apr 5, 1:00 AM)
Low77 °F (Apr 5, 1:00 AM)17% (Apr 5, 5:00 PM)29.80 "Hg (Apr 4, 4:00 PM)
Average83 °F74%29.89 "Hg
* Reported Apr 3 7:00 PM — Apr 18 7:00 PM, Oranjestad, Weather by CustomWeather, © 2015

Note: Actual official high and low records may vary slightly from our data, if they occured in-between our weather recording intervals... More about our weather records

Advertising

Oranjestad weather history for previous 24 hours

 ConditionsComfort  
Time TempWeatherWind HumidityBarometerVisibility
7:00 PM
Sat, Apr 18
82 °FPassing clouds.22 mph79%29.83 "HgN/A
6:00 PM82 °FPassing clouds.23 mph79%29.83 "HgN/A
5:00 PM84 °FPassing clouds.22 mph74%29.83 "HgN/A
4:00 PMN/AScattered clouds.21 mphN/A30.24 "HgN/A
3:00 PM88 °FScattered clouds.22 mph66%29.86 "HgN/A
2:00 PM88 °FScattered clouds.23 mph66%29.89 "HgN/A
1:00 PM88 °FPassing clouds.21 mph66%29.92 "HgN/A
12:00 PM86 °FScattered clouds.21 mph70%29.95 "HgN/A
11:00 AM86 °FScattered clouds.23 mph66%29.95 "HgN/A
10:00 AM84 °FPassing clouds.21 mph70%29.95 "HgN/A
9:00 AM82 °FPassing clouds.21 mph74%29.95 "HgN/A
8:00 AM81 °FPassing clouds.17 mph79%29.95 "HgN/A
7:00 AM81 °FPassing clouds.15 mph79%29.92 "HgN/A
6:00 AM81 °FPassing clouds.14 mph79%29.89 "HgN/A
5:00 AM79 °FPassing clouds.14 mph84%29.89 "HgN/A
4:00 AM81 °FPassing clouds.16 mph79%29.89 "HgN/A
3:00 AM81 °FPassing clouds.17 mph79%29.89 "HgN/A
2:00 AM81 °FPassing clouds.14 mph84%29.92 "HgN/A
1:00 AM81 °FPassing clouds.16 mph84%29.92 "HgN/A
12:00 AM81 °FPassing clouds.17 mph84%29.92 "HgN/A
11:00 PM
Fri, Apr 17
81 °FPassing clouds.16 mph79%29.95 "HgN/A
10:00 PM81 °FPassing clouds.16 mph84%29.95 "HgN/A
9:00 PM81 °FPassing clouds.18 mph84%29.92 "HgN/A
8:00 PM81 °FPassing clouds.16 mph79%29.89 "HgN/A
7:00 PM82 °FPassing clouds.17 mph79%29.86 "HgN/A
Weather by CustomWeather, © 2015

See weather overviewHow to use our weather pages